Gustavus, AK

6:37 AM AKDT on April 23, 2017 (GMT -0800)
Gustavus

Weather History for PAGS - April, 2013

Change the Weather History Date:

Thursday, April 25, 2013

  Actual Average Record
Temperature  
Mean Temperature 38 °F -  
Max Temperature 42 °F 53 °F 71 °F (2003)
Min Temperature 35 °F 35 °F 21 °F (1955)
Degree Days  
Heating Degree Days 26    
Moisture  
Dew Point 37 °F    
Average Humidity 92    
Maximum Humidity 100    
Minimum Humidity 81    
Precipitation  
Precipitation 0.00 in - - ()
Sea Level Pressure  
Sea Level Pressure 29.57 in    
Wind  
Wind Speed 7 mph (SE)    
Max Wind Speed 14 mph    
Max Gust Speed -    
Visibility 9 miles    
Events      
Averages and records for this station are not official NWS values.
T = Trace of Precipitation, MM = Missing Value Source: NWS Daily Summary

Daily Weather History Graph

Daily Weather History Graph

Search for Another Location

Airport or City:

Trip Planner

Search our weather history database for the weather conditions in past years. The results will help you decide how hot, cold, wet, or windy it might be!

Date:

Astronomy

Apr. 25, 2013 Rise Set
Actual Time 5:22 AM AKDT 8:40 PM AKDT
Civil Twilight 4:35 AM AKDT 9:27 PM AKDT
Nautical Twilight 3:30 AM AKDT 10:33 PM AKDT
Astronomical Twilight 1:31 AM AKDT 12:28 AM AKDT
Moon 9:12 PM AKDT (4/25) 5:11 AM AKDT (4/25)
Length of Visible Light 16h 51m
Length of Day
15h 17m
Full, 100% of the Moon is Illuminated
Apr 25
Full
May 2
Last Quarter
May 9
New
May 17
First Quarter
May 24
Full

Hourly Weather History & Observations

Time (AKDT) Temp. Windchill Dew Point Humidity Pressure Visibility Wind Dir Wind Speed Gust Speed Precip Events Conditions
12:16 AM 41.0 °F 39.0 °F 41.0 °F 100% 29.74 in 3.0 mi ESE 3.5 mph - N/A   Overcast
12:36 AM 41.0 °F 38.0 °F 39.2 °F 93% 29.73 in 10.0 mi SE 4.6 mph - N/A   Overcast
12:56 AM 41.0 °F 38.0 °F 39.2 °F 93% 29.72 in 7.0 mi SSE 4.6 mph - N/A   Overcast
1:16 AM 41.0 °F 35.8 °F 39.2 °F 93% 29.72 in 10.0 mi SE 8.1 mph - N/A   Overcast
1:36 AM 41.0 °F 35.2 °F 39.2 °F 93% 29.70 in 10.0 mi ESE 9.2 mph - N/A   Overcast
1:56 AM 41.0 °F 34.3 °F 39.2 °F 93% 29.69 in 8.0 mi ESE 11.5 mph - N/A   Overcast
2:16 AM 41.0 °F 36.4 °F 39.2 °F 93% 29.69 in 9.0 mi SSE 6.9 mph - N/A   Overcast
2:36 AM 41.0 °F 38.0 °F 39.2 °F 93% 29.68 in 10.0 mi SSE 4.6 mph - N/A   Overcast
2:56 AM 41.0 °F 35.8 °F 39.2 °F 93% 29.66 in 10.0 mi ESE 8.1 mph - N/A   Overcast
3:16 AM 41.0 °F 36.4 °F 39.2 °F 93% 29.66 in 10.0 mi SE 6.9 mph - N/A   Mostly Cloudy
3:36 AM 41.0 °F 34.7 °F 39.2 °F 93% 29.64 in 10.0 mi SE 10.4 mph - N/A   Overcast
3:56 AM 42.8 °F 38.0 °F 37.4 °F 81% 29.64 in 10.0 mi SSE 8.1 mph - N/A   Overcast
4:16 AM 41.0 °F 36.4 °F 39.2 °F 93% 29.63 in 7.0 mi SSE 6.9 mph - N/A   Overcast
4:36 AM 41.0 °F 37.1 °F 39.2 °F 93% 29.62 in 8.0 mi South 5.8 mph - N/A   Overcast
4:56 AM 41.0 °F 38.0 °F 39.2 °F 93% 29.61 in 10.0 mi South 4.6 mph - N/A   Overcast
5:16 AM 41.0 °F 37.1 °F 39.2 °F 93% 29.60 in 8.0 mi SSE 5.8 mph - N/A   Overcast
5:36 AM 41.0 °F 37.1 °F 37.4 °F 87% 29.60 in 8.0 mi SSE 5.8 mph - N/A   Overcast
5:56 AM 41.0 °F 38.0 °F 37.4 °F 87% 29.59 in 7.0 mi South 4.6 mph - N/A   Overcast
6:16 AM 41.0 °F - 39.2 °F 93% 29.58 in 6.0 mi Calm Calm - N/A   Overcast
6:36 AM 41.0 °F 38.0 °F 39.2 °F 93% 29.58 in 9.0 mi SSE 4.6 mph - N/A   Overcast
6:56 AM 39.2 °F 35.0 °F 37.4 °F 93% 29.59 in 7.0 mi WNW 5.8 mph - N/A   Overcast
7:16 AM 39.2 °F 37.0 °F 37.4 °F 93% 29.58 in 9.0 mi WSW 3.5 mph - N/A   Overcast
7:36 AM 39.2 °F - 37.4 °F 93% 29.58 in 8.0 mi Calm Calm - N/A   Overcast
7:56 AM 39.2 °F 37.0 °F 39.2 °F 100% 29.57 in 8.0 mi East 3.5 mph - N/A   Overcast
8:16 AM 39.2 °F 37.0 °F 39.2 °F 100% 29.56 in 10.0 mi ENE 3.5 mph - N/A   Overcast
8:36 AM 39.2 °F - 37.4 °F 93% 29.56 in 10.0 mi Calm Calm - N/A   Overcast
8:56 AM 39.2 °F - 39.2 °F 100% 29.55 in 9.0 mi Calm Calm - N/A   Overcast
9:16 AM 39.2 °F 35.0 °F 39.2 °F 100% 29.54 in 7.0 mi ESE 5.8 mph - N/A   Overcast
9:36 AM 41.0 °F 35.2 °F 39.2 °F 93% 29.55 in 9.0 mi SE 9.2 mph - N/A   Overcast
9:56 AM 41.0 °F 35.2 °F 37.4 °F 87% 29.55 in 10.0 mi SE 9.2 mph - N/A   Overcast
10:16 AM 39.2 °F 33.0 °F 37.4 °F 93% 29.54 in 10.0 mi SE 9.2 mph - N/A   Overcast
10:36 AM 39.2 °F 32.0 °F 37.4 °F 93% 29.54 in 8.0 mi SE 11.5 mph - N/A   Overcast
10:56 AM 39.2 °F 32.5 °F 37.4 °F 93% 29.54 in 8.0 mi SE 10.4 mph - N/A   Overcast
11:16 AM 39.2 °F 31.2 °F 37.4 °F 93% 29.54 in 8.0 mi SE 13.8 mph - N/A   Overcast
11:36 AM 39.2 °F 31.6 °F 35.6 °F 87% 29.54 in 8.0 mi SE 12.7 mph - N/A   Overcast
11:56 AM 37.4 °F 29.3 °F 35.6 °F 93% 29.54 in 9.0 mi ESE 12.7 mph - N/A   Overcast
12:16 PM 37.4 °F 29.8 °F 35.6 °F 93% 29.53 in 8.0 mi ESE 11.5 mph - N/A   Overcast
12:36 PM 37.4 °F 28.9 °F 35.6 °F 93% 29.53 in 8.0 mi ESE 13.8 mph - N/A   Overcast
12:56 PM 37.4 °F 29.3 °F 35.6 °F 93% 29.53 in 10.0 mi SE 12.7 mph - N/A   Overcast
1:16 PM 39.2 °F 31.6 °F 35.6 °F 87% 29.53 in 9.0 mi SE 12.7 mph - N/A   Overcast
1:36 PM 39.2 °F 31.6 °F 35.6 °F 87% 29.53 in 10.0 mi SE 12.7 mph - N/A   Overcast
1:56 PM 39.2 °F 32.5 °F 37.4 °F 93% 29.53 in 9.0 mi ESE 10.4 mph - N/A   Overcast
2:16 PM 39.2 °F 31.6 °F 37.4 °F 93% 29.53 in 10.0 mi ESE 12.7 mph - N/A   Overcast
2:36 PM 39.2 °F 33.0 °F 37.4 °F 93% 29.53 in 10.0 mi SE 9.2 mph - N/A   Overcast
2:56 PM 39.2 °F 32.0 °F 37.4 °F 93% 29.53 in 10.0 mi SE 11.5 mph - N/A   Overcast
3:16 PM 39.2 °F 31.6 °F 37.4 °F 93% 29.52 in 10.0 mi ESE 12.7 mph - N/A   Overcast
3:36 PM 41.0 °F 34.7 °F 37.4 °F 87% 29.52 in 10.0 mi ESE 10.4 mph - N/A   Overcast
3:56 PM 41.0 °F 34.3 °F 37.4 °F 87% 29.52 in 10.0 mi ESE 11.5 mph - N/A   Overcast
4:16 PM 41.0 °F 33.9 °F 39.2 °F 93% 29.52 in 10.0 mi SE 12.7 mph - N/A   Overcast
4:36 PM 41.0 °F 34.7 °F 37.4 °F 87% 29.51 in 10.0 mi ESE 10.4 mph - N/A   Overcast
4:56 PM 42.8 °F 36.6 °F 37.4 °F 81% 29.51 in 10.0 mi ESE 11.5 mph - N/A   Overcast
5:16 PM 42.8 °F 37.0 °F 37.4 °F 81% 29.51 in 10.0 mi SE 10.4 mph - N/A   Overcast
5:36 PM 42.8 °F 36.2 °F 37.4 °F 81% 29.51 in 10.0 mi SE 12.7 mph - N/A   Mostly Cloudy
5:56 PM 42.8 °F 37.0 °F 39.2 °F 87% 29.51 in 10.0 mi SE 10.4 mph - N/A   Mostly Cloudy
6:16 PM 42.8 °F 36.6 °F 37.4 °F 81% 29.51 in 10.0 mi SE 11.5 mph - N/A   Scattered Clouds
6:36 PM 42.8 °F 38.6 °F 37.4 °F 81% 29.51 in 10.0 mi SE 6.9 mph - N/A   Mostly Cloudy
6:56 PM 42.8 °F 38.6 °F 37.4 °F 81% 29.52 in 10.0 mi SSE 6.9 mph - N/A   Overcast
7:16 PM 41.0 °F 35.2 °F 37.4 °F 87% 29.53 in 10.0 mi NW 9.2 mph - N/A   Overcast
7:36 PM 37.4 °F 29.3 °F 35.6 °F 93% 29.53 in 8.0 mi NNW 12.7 mph - N/A   Overcast
7:56 PM 37.4 °F 30.8 °F 35.6 °F 93% 29.52 in 7.0 mi NNW 9.2 mph - N/A   Overcast
8:16 PM 35.6 °F 29.2 °F 35.6 °F 100% 29.52 in 6.0 mi NW 8.1 mph - N/A   Overcast
8:36 PM 35.6 °F 28.0 °F 33.8 °F 93% 29.52 in 7.0 mi NNW 10.4 mph - N/A   Overcast
8:56 PM 35.6 °F 28.6 °F 33.8 °F 93% 29.52 in 10.0 mi NW 9.2 mph - N/A   Overcast
9:16 PM 35.6 °F 28.6 °F 33.8 °F 93% 29.52 in 10.0 mi NNW 9.2 mph - N/A   Overcast
9:36 PM 35.6 °F 28.6 °F 33.8 °F 93% 29.53 in 10.0 mi NNW 9.2 mph - N/A   Overcast
9:56 PM 35.6 °F 28.6 °F 33.8 °F 93% 29.52 in 10.0 mi NNW 9.2 mph - N/A   Overcast
10:16 PM 35.6 °F 29.2 °F 33.8 °F 93% 29.52 in 10.0 mi NNW 8.1 mph - N/A   Overcast
10:36 PM 35.6 °F 29.2 °F 33.8 °F 93% 29.53 in 10.0 mi NNW 8.1 mph - N/A   Overcast
11:16 PM 35.6 °F 29.9 °F 33.8 °F 93% 29.52 in 10.0 mi North 6.9 mph - N/A   Overcast
11:36 PM 35.6 °F 31.7 °F 35.6 °F 100% 29.52 in 8.0 mi North 4.6 mph - N/A   Overcast
11:56 PM 35.6 °F 30.7 °F 35.6 °F 100% 29.51 in 9.0 mi North 5.8 mph - N/A   Overcast